When you browse on this site, cookies collect data to enhance your experience and personalize the content and advertising you see.
Visit our Privacy Policy to learn more. By continuing to use the site, you agree to this use of cookies and data.

Hourly Weather Prisele

Today, 14 July, Tuesday

Time Temperature Precipitation Wind Pressure Humidity
00:00 +12°C° 0 mm 2 mps 742 mmHg 97%
01:00 +12°C° 0 mm 2 mps 742 mmHg 97%
02:00 +11°C° 0 mm 3 mps 742 mmHg 99%
03:00 +11°C° 0 mm 3 mps 742 mmHg 97%
04:00 +11°C° 0 mm 3 mps 742 mmHg 96%
05:00 +11°C° 0 mm 3 mps 741 mmHg 95%
06:00 +12°C° 0 mm 3 mps 741 mmHg 90%
07:00 +13°C° 0 mm 3 mps 742 mmHg 86%
08:00 +14°C° 0 mm 4 mps 742 mmHg 81%
09:00 +17°C° 0 mm 4 mps 742 mmHg 75%
10:00 +18°C° 0 mm 4 mps 742 mmHg 69%
11:00 +19°C° 0 mm 4 mps 741 mmHg 63%
12:00 +19°C° 0 mm 4 mps 741 mmHg 62%
13:00 +20°C° 0 mm 4 mps 741 mmHg 61%
14:00 +20°C° 0 mm 4 mps 741 mmHg 60%
15:00 +19°C° 0.1 mm 4 mps 740 mmHg 65%
16:00 +19°C° 0.1 mm 4 mps 740 mmHg 69%
17:00 +18°C° 0.1 mm 4 mps 740 mmHg 74%
18:00 +17°C° 0.2 mm 4 mps 739 mmHg 77%
19:00 +17°C° 0.2 mm 4 mps 739 mmHg 80%
20:00 +15°C° 0.2 mm 4 mps 738 mmHg 83%
21:00 +14°C° 0.9 mm 4 mps 738 mmHg 84%
22:00 +14°C° 0.9 mm 4 mps 737 mmHg 85%
23:00 +13°C° 0.9 mm 4 mps 737 mmHg 85%

Tomorrow, 15 July, Wednesday

Time Temperature Precipitation Wind Pressure Humidity
00:00 +13°C° 3 mm 5 mps 736 mmHg 89%
01:00 +11°C° 3 mm 6 mps 736 mmHg 93%
02:00 +11°C° 3 mm 7 mps 736 mmHg 96%
03:00 +10°C° 1.5 mm 7 mps 736 mmHg 96%
04:00 +10°C° 1.5 mm 7 mps 735 mmHg 95%
05:00 +10°C° 1.5 mm 8 mps 735 mmHg 95%
06:00 +9°C° 1.6 mm 8 mps 735 mmHg 95%
07:00 +9°C° 1.6 mm 8 mps 735 mmHg 96%
08:00 +9°C° 1.6 mm 8 mps 735 mmHg 96%
09:00 +9°C° 1.9 mm 8 mps 735 mmHg 96%
10:00 +9°C° 1.9 mm 8 mps 735 mmHg 96%
11:00 +9°C° 1.9 mm 8 mps 735 mmHg 96%
12:00 +9°C° 0.7 mm 8 mps 736 mmHg 95%
13:00 +9°C° 0.7 mm 8 mps 736 mmHg 95%
14:00 +9°C° 0.7 mm 7 mps 736 mmHg 95%
15:00 +9°C° 0.3 mm 7 mps 737 mmHg 95%
16:00 +9°C° 0.3 mm 7 mps 737 mmHg 95%
17:00 +9°C° 0.3 mm 6 mps 737 mmHg 95%
18:00 +9°C° 0.1 mm 6 mps 738 mmHg 95%
19:00 +9°C° 0.1 mm 5 mps 738 mmHg 94%
20:00 +10°C° 0.1 mm 5 mps 738 mmHg 94%
21:00 +10°C° 0 mm 5 mps 738 mmHg 94%
22:00 +11°C° 0 mm 4 mps 738 mmHg 93%
23:00 +11°C° 0 mm 4 mps 738 mmHg 93%

Day after tomorrow, 16 July, Thursday

Time Temperature Precipitation Wind Pressure Humidity
00:00 +11°C° 0 mm 4 mps 738 mmHg 93%
01:00 +11°C° 0 mm 4 mps 739 mmHg 93%
02:00 +11°C° 0 mm 4 mps 739 mmHg 93%
03:00 +11°C° 0.1 mm 4 mps 739 mmHg 93%
04:00 +11°C° 0.1 mm 4 mps 739 mmHg 93%
05:00 +11°C° 0.1 mm 4 mps 739 mmHg 94%
06:00 +12°C° 0 mm 4 mps 739 mmHg 90%
07:00 +13°C° 0 mm 4 mps 739 mmHg 86%
08:00 +14°C° 0 mm 4 mps 739 mmHg 82%
09:00 +15°C° 0 mm 4 mps 739 mmHg 76%
10:00 +18°C° 0 mm 4 mps 739 mmHg 70%
11:00 +19°C° 0 mm 4 mps 739 mmHg 64%
12:00 +20°C° 0 mm 4 mps 740 mmHg 62%
13:00 +21°C° 0 mm 4 mps 740 mmHg 59%
14:00 +22°C° 0 mm 4 mps 740 mmHg 56%
15:00 +21°C° 0 mm 3 mps 740 mmHg 59%
16:00 +21°C° 0 mm 3 mps 740 mmHg 62%
17:00 +21°C° 0 mm 3 mps 740 mmHg 65%
18:00 +19°C° 0.1 mm 2 mps 740 mmHg 72%
19:00 +18°C° 0.1 mm 2 mps 740 mmHg 79%
20:00 +16°C° 0.1 mm 1 mps 740 mmHg 86%
21:00 +15°C° 0 mm 1 mps 740 mmHg 88%
22:00 +14°C° 0 mm 1 mps 740 mmHg 90%
23:00 +13°C° 0 mm 1 mps 741 mmHg 92%

17 July, Friday

Time Temperature Precipitation Wind Pressure Humidity
00:00 +13°C° 0 mm 1 mps 741 mmHg 93%
01:00 +13°C° 0 mm 1 mps 741 mmHg 94%
02:00 +12°C° 0 mm 1 mps 741 mmHg 94%
03:00 +12°C° 0 mm 1 mps 741 mmHg 94%
04:00 +13°C° 0 mm 1 mps 741 mmHg 94%
05:00 +13°C° 0 mm 1 mps 741 mmHg 94%
06:00 +15°C° 0 mm 1 mps 741 mmHg 86%
07:00 +18°C° 0 mm 1 mps 741 mmHg 78%
08:00 +19°C° 0 mm 2 mps 742 mmHg 71%
09:00 +20°C° 0 mm 2 mps 742 mmHg 65%
10:00 +21°C° 0 mm 2 mps 742 mmHg 60%
11:00 +23°C° 0 mm 2 mps 742 mmHg 54%
12:00 +22°C° 0 mm 3 mps 742 mmHg 53%
13:00 +24°C° 0 mm 3 mps 742 mmHg 51%
14:00 +24°C° 0 mm 3 mps 742 mmHg 50%
15:00 +24°C° 0 mm 2 mps 742 mmHg 53%
16:00 +24°C° 0 mm 2 mps 742 mmHg 55%
17:00 +24°C° 0 mm 2 mps 743 mmHg 58%
18:00 +21°C° 0 mm 2 mps 743 mmHg 66%
19:00 +20°C° 0 mm 1 mps 743 mmHg 73%
20:00 +18°C° 0 mm 1 mps 743 mmHg 81%
21:00 +16°C° 0 mm 1 mps 743 mmHg 83%
22:00 +15°C° 0 mm 1 mps 744 mmHg 85%
23:00 +14°C° 0 mm 1 mps 744 mmHg 88%

18 July, Saturday

Time Temperature Precipitation Wind Pressure Humidity
00:00 +13°C° 0 mm 1 mps 744 mmHg 87%
01:00 +12°C° 0 mm 0 mps 744 mmHg 86%
02:00 +12°C° 0 mm 0 mps 744 mmHg 85%
03:00 +13°C° 0 mm 1 mps 745 mmHg 83%
04:00 +13°C° 0 mm 1 mps 745 mmHg 82%
05:00 +13°C° 0 mm 1 mps 745 mmHg 80%
06:00 +15°C° 0 mm 1 mps 745 mmHg 75%
07:00 +18°C° 0 mm 1 mps 746 mmHg 69%
08:00 +20°C° 0 mm 1 mps 746 mmHg 63%
09:00 +21°C° 0 mm 1 mps 746 mmHg 58%
10:00 +22°C° 0 mm 1 mps 746 mmHg 53%
11:00 +24°C° 0 mm 2 mps 746 mmHg 49%
12:00 +24°C° 0 mm 2 mps 746 mmHg 48%
13:00 +25°C° 0 mm 2 mps 746 mmHg 47%
14:00 +25°C° 0 mm 2 mps 746 mmHg 46%
15:00 +25°C° 0 mm 2 mps 746 mmHg 51%
16:00 +25°C° 0 mm 1 mps 746 mmHg 55%
17:00 +24°C° 0 mm 1 mps 746 mmHg 59%
18:00 +22°C° 0 mm 1 mps 746 mmHg 66%
19:00 +20°C° 0 mm 1 mps 746 mmHg 73%
20:00 +16°C° 0 mm 0 mps 746 mmHg 80%
21:00 +15°C° 0 mm 0 mps 746 mmHg 82%
22:00 +14°C° 0 mm 0 mps 747 mmHg 85%
23:00 +13°C° 0 mm 0 mps 747 mmHg 87%

19 July, Sunday

Time Temperature Precipitation Wind Pressure Humidity
00:00 +13°C° 0 mm 0 mps 747 mmHg 88%
01:00 +13°C° 0 mm 0 mps 747 mmHg 88%
02:00 +12°C° 0 mm 0 mps 747 mmHg 89%
03:00 +12°C° 0 mm 0 mps 747 mmHg 88%
04:00 +13°C° 0 mm 0 mps 747 mmHg 86%
05:00 +14°C° 0 mm 1 mps 747 mmHg 85%
06:00 +16°C° 0 mm 1 mps 747 mmHg 77%
07:00 +19°C° 0 mm 1 mps 747 mmHg 69%
08:00 +21°C° 0 mm 1 mps 747 mmHg 61%
09:00 +23°C° 0 mm 1 mps 747 mmHg 56%
10:00 +24°C° 0 mm 1 mps 747 mmHg 50%
11:00 +25°C° 0 mm 2 mps 747 mmHg 44%
12:00 +25°C° 0 mm 2 mps 746 mmHg 44%
13:00 +25°C° 0 mm 2 mps 746 mmHg 43%
14:00 +26°C° 0 mm 2 mps 746 mmHg 42%
15:00 +25°C° 0 mm 1 mps 745 mmHg 47%
16:00 +25°C° 0 mm 1 mps 745 mmHg 51%
17:00 +25°C° 0 mm 1 mps 745 mmHg 56%
18:00 +23°C° 0 mm 1 mps 745 mmHg 62%
19:00 +21°C° 0 mm 1 mps 745 mmHg 69%
20:00 +18°C° 0 mm 1 mps 744 mmHg 75%
21:00 +18°C° 0 mm 1 mps 744 mmHg 76%
22:00 +16°C° 0 mm 1 mps 744 mmHg 76%
23:00 +15°C° 0 mm 1 mps 744 mmHg 76%
Show more